User: anonymous   Login
Location: Unspecified
(0.0000°N, 0.0000°E)
Time: 00:08:45
(UTC+00:00)
Language:

STARLINK-31314 - Orbit

View from above orbital plane
View from above orbital plane
View from above satellite
View from above satellite

Ground track
Ground track

The orbit is defined by the following mean orbital elements,

1 58967U          26145.41411181 +.00000000 +00000-0 +70871-4 0 00004
2 58967  53.1609 300.0614 0001085  98.0555 262.0569 15.30194851    08
Epoch (UTC): 25 May 2026 09:56:19
Eccentricity: 0.0001085
inclination: 53.1609°
perigee height: 474 km
apogee height: 476 km
right ascension of ascending node: 300.0614°
argument of perigee: 98.0555°
revolutions per day: 15.30194851
mean anomaly at epoch: 262.0569°

The dashed part of the orbit path shows where the satellite is in the earth's shadow,  

DLR